Location: Newton_East
(35.6670°N, 81.2000°W)
Time: 22:53:51
(UTC-04:00)

ISS - Visible Passes

Search period start: 26 July 2017 00:00
Search period end: 05 August 2017 00:00
Orbit: 400 x 408 km, 51.6° (Epoch: 27 July)

Date Brightness Start Highest point End Pass type
(mag) Time Alt. Az. Time Alt. Az. Time Alt. Az.
26 Jul -0.2 22:35:09 10° NNW 22:35:32 10° NNW 22:35:55 10° NNW visible
27 Jul -0.7 21:40:56 10° WNW 21:42:56 15° NNW 21:44:56 10° N visible
03 Aug -0.3 23:39:57 10° NNW 23:40:05 11° NNW 23:40:05 11° NNW visible
04 Aug -1.0 22:48:15 10° N 22:49:25 12° NNE 22:49:25 12° NNE visible
